Weather History for Menominee, MI

Change the Weather History Date:

Monday, April 29, 2013

  Actual Average Record
Temperature  
Mean Temperature 52 °F -  
Max Temperature 59 °F 62 °F 87 °F (1974)
Min Temperature 44 °F 38 °F 23 °F (1958)
Degree Days  
Heating Degree Days 14    
Growing Degree Days 2 (Base 50)    
Moisture  
Dew Point 48 °F    
Average Humidity 89    
Maximum Humidity 100    
Minimum Humidity 76    
Precipitation  
Precipitation 0.06 in - - ()
Sea Level Pressure  
Sea Level Pressure 29.81 in    
Wind  
Wind Speed 4 mph (SSE)    
Max Wind Speed 9 mph    
Max Gust Speed -    
Visibility 6 miles    
Events      
Averages and records for this station are not official NWS values.
T = Trace of Precipitation, MM = Missing Value Source: NWS Daily Summary

Daily Weather History Graph

Daily Weather History Graph

Search for Another Location

Airport:

Trip Planner

Search our weather history database for the weather conditions in past years. The results will help you decide how hot, cold, wet, or windy it might be!

Date:

Astronomy

Apr. 29, 2013 Rise Set
Actual Time 5:42 AM CDT 7:54 PM CDT
Civil Twilight 5:09 AM CDT 8:26 PM CDT
Nautical Twilight 4:30 AM CDT 9:06 PM CDT
Astronomical Twilight 3:45 AM CDT 9:51 PM CDT
Moon No Moon Rise 8:58 AM CDT
Length of Visible Light 15h 16m
Length of Day
14h 12m
Waning Gibbous, 80% of the Moon is Illuminated
Apr 29
Waning Gibbous
May 2
Last Quarter
May 9
New
May 17
First Quarter
May 24
Full

Hourly Weather History & Observations

Time (CDT) Temp. Windchill Dew Point Humidity Pressure Visibility Wind Dir Wind Speed Gust Speed Precip Events Conditions
12:15 AM 50.0 °F - 44.6 °F 82% 29.81 in 10.0 mi SSW 5.8 mph - N/A   Clear
12:35 AM 51.8 °F - 44.6 °F 76% 29.81 in 10.0 mi SW 4.6 mph - N/A   Clear
12:55 AM 51.8 °F - 44.6 °F 76% 29.81 in 10.0 mi SSW 3.5 mph - N/A   Clear
1:15 AM 51.8 °F - 44.6 °F 76% 29.80 in 10.0 mi South 3.5 mph - N/A   Clear
1:35 AM 51.8 °F - 46.4 °F 82% 29.79 in 10.0 mi South 4.6 mph - N/A   Clear
1:55 AM 50.0 °F - 44.6 °F 82% 29.80 in 10.0 mi South 3.5 mph - N/A   Clear
2:15 AM 48.2 °F - 44.6 °F 87% 29.80 in 10.0 mi Calm Calm - N/A   Clear
2:35 AM 48.2 °F - 44.6 °F 87% 29.79 in 10.0 mi Calm Calm - N/A   Scattered Clouds
2:55 AM 46.4 °F 45.2 °F 44.6 °F 93% 29.79 in 9.0 mi ESE 3.5 mph - N/A   Mostly Cloudy
3:15 AM 44.6 °F - 44.6 °F 100% 29.79 in 7.0 mi Calm Calm - N/A   Mostly Cloudy
3:35 AM 46.4 °F 45.2 °F 44.6 °F 93% 29.79 in 7.0 mi ENE 3.5 mph - N/A   Mostly Cloudy
3:55 AM 44.6 °F 40.7 °F 44.6 °F 100% 29.81 in 7.0 mi North 6.9 mph - N/A   Mostly Cloudy
4:15 AM 48.2 °F - 44.6 °F 87% 29.82 in 9.0 mi NNW 3.5 mph - N/A   Mostly Cloudy
4:35 AM 44.6 °F - 44.6 °F 100% 29.82 in 8.0 mi Calm Calm - N/A   Partly Cloudy
4:55 AM 46.4 °F 45.2 °F 44.6 °F 93% 29.82 in 7.0 mi SSW 3.5 mph - N/A   Scattered Clouds
5:15 AM 46.4 °F - 44.6 °F 93% 29.82 in 8.0 mi Calm Calm - N/A   Overcast
5:35 AM 46.4 °F - 44.6 °F 93% 29.82 in 6.0 mi Calm Calm - N/A   Overcast
5:55 AM 46.4 °F - 46.4 °F 100% 29.82 in 5.0 mi Calm Calm - 0.01 in   Overcast
6:15 AM 46.4 °F 45.2 °F 44.6 °F 93% 29.81 in 3.0 mi East 3.5 mph - 0.01 in   Overcast
6:35 AM 46.4 °F - 46.4 °F 100% 29.83 in 3.0 mi Calm Calm - 0.02 in   Overcast
6:55 AM 48.2 °F - 46.4 °F 93% 29.82 in 2.0 mi South 3.5 mph - 0.02 in   Overcast
7:15 AM 48.2 °F - 48.2 °F 100% 29.82 in 2.5 mi SSE 3.5 mph - 0.01 in   Overcast
7:35 AM 51.8 °F - 48.2 °F 88% 29.81 in 4.0 mi SSE 3.5 mph - 0.02 in   Overcast
7:55 AM 51.8 °F - 48.2 °F 88% 29.81 in 3.0 mi South 9.2 mph - 0.02 in   Overcast
8:15 AM 51.8 °F - 48.2 °F 88% 29.82 in 3.0 mi Calm Calm - N/A   Mostly Cloudy
8:35 AM 51.8 °F - 48.2 °F 88% 29.83 in 4.0 mi Calm Calm - N/A   Mostly Cloudy
8:55 AM 53.6 °F - 51.8 °F 94% 29.83 in 4.0 mi SW 4.6 mph - N/A   Mostly Cloudy
9:15 AM 51.8 °F - 50.0 °F 94% 29.84 in 5.0 mi SSW 4.6 mph - N/A   Mostly Cloudy
9:35 AM 53.6 °F - 50.0 °F 88% 29.83 in 5.0 mi South 5.8 mph - N/A   Mostly Cloudy
9:55 AM 53.6 °F - 51.8 °F 94% 29.83 in 5.0 mi South 5.8 mph - N/A   Partly Cloudy
10:15 AM 53.6 °F - 51.8 °F 94% 29.83 in 6.0 mi SSW 4.6 mph - N/A   Mostly Cloudy
10:35 AM 53.6 °F - 51.8 °F 94% 29.83 in 3.0 mi SE 4.6 mph - N/A   Overcast
10:55 AM 53.6 °F - 51.8 °F 94% 29.84 in 4.0 mi South 5.8 mph - 0.01 in   Overcast
11:15 AM 53.6 °F - 51.8 °F 94% 29.83 in 3.0 mi SSW 5.8 mph - N/A   Overcast
11:35 AM 53.6 °F - 51.8 °F 94% 29.83 in 3.0 mi SSW 8.1 mph - N/A   Overcast
11:55 AM 53.6 °F - 51.8 °F 94% 29.83 in 3.0 mi SW 4.6 mph - N/A   Overcast
12:15 PM 53.6 °F - 51.8 °F 94% 29.83 in 3.0 mi Calm Calm - N/A   Overcast
12:35 PM 53.6 °F - 51.8 °F 94% 29.82 in 3.0 mi SSE 4.6 mph - N/A   Overcast
12:55 PM 53.6 °F - 53.6 °F 100% 29.83 in 3.0 mi SW 5.8 mph - N/A   Overcast
1:15 PM 55.4 °F - 53.6 °F 94% 29.83 in 3.0 mi SW 6.9 mph - N/A   Overcast
1:35 PM 55.4 °F - 53.6 °F 94% 29.83 in 4.0 mi SSW 8.1 mph - N/A   Overcast
1:55 PM 55.4 °F - 53.6 °F 94% 29.83 in 5.0 mi South 5.8 mph - N/A   Overcast
2:15 PM 57.2 °F - 53.6 °F 88% 29.82 in 5.0 mi SSE 4.6 mph - N/A   Overcast
2:35 PM 57.2 °F - 53.6 °F 88% 29.81 in 7.0 mi SSE 8.1 mph - N/A   Overcast
2:55 PM 59.0 °F - 53.6 °F 82% 29.79 in 8.0 mi SE 8.1 mph - N/A   Overcast
3:15 PM 59.0 °F - 53.6 °F 82% 29.79 in 8.0 mi SSE 8.1 mph - N/A   Overcast
3:35 PM 59.0 °F - 53.6 °F 82% 29.80 in 9.0 mi SSE 9.2 mph - N/A   Overcast
3:55 PM 57.2 °F - 53.6 °F 88% 29.80 in 9.0 mi SE 6.9 mph - N/A   Overcast
4:15 PM 57.2 °F - 51.8 °F 82% 29.79 in 8.0 mi ESE 8.1 mph - N/A   Overcast
4:35 PM 55.4 °F - 51.8 °F 88% 29.80 in 7.0 mi ESE 9.2 mph - N/A   Overcast
4:55 PM 53.6 °F - 48.2 °F 82% 29.79 in 6.0 mi ESE 8.1 mph - N/A   Overcast
5:15 PM 53.6 °F - 50.0 °F 88% 29.79 in 5.0 mi ESE 6.9 mph - N/A   Overcast
5:35 PM 53.6 °F - 48.2 °F 82% 29.79 in 7.0 mi East 5.8 mph - N/A   Overcast
5:55 PM 53.6 °F - 48.2 °F 82% 29.79 in 7.0 mi East 5.8 mph - N/A   Mostly Cloudy
6:15 PM 51.8 °F - 46.4 °F 82% 29.78 in 6.0 mi ESE 6.9 mph - N/A   Mostly Cloudy
6:35 PM 51.8 °F - 48.2 °F 88% 29.78 in 5.0 mi ESE 5.8 mph - N/A   Overcast
6:55 PM 50.0 °F - 46.4 °F 87% 29.78 in 5.0 mi ESE 5.8 mph - N/A   Overcast
7:15 PM 48.2 °F - 46.4 °F 93% 29.78 in 4.0 mi ESE 5.8 mph - N/A   Mostly Cloudy
7:35 PM 48.2 °F - 44.6 °F 87% 29.78 in 3.0 mi ESE 5.8 mph - N/A   Clear
7:55 PM 48.2 °F - 44.6 °F 87% 29.78 in 4.0 mi ESE 4.6 mph - N/A   Clear
8:15 PM 46.4 °F 44.3 °F 44.6 °F 93% 29.78 in 3.0 mi ESE 4.6 mph - N/A   Scattered Clouds
8:35 PM 48.2 °F - 44.6 °F 87% 29.78 in 5.0 mi East 5.8 mph - N/A   Scattered Clouds
8:55 PM 46.4 °F 42.9 °F 44.6 °F 93% 29.79 in 5.0 mi South 6.9 mph - N/A   Clear
9:15 PM 50.0 °F - 46.4 °F 87% 29.79 in 7.0 mi SSE 5.8 mph - N/A   Partly Cloudy
9:35 PM 50.0 °F - 46.4 °F 87% 29.78 in 6.0 mi SSE 6.9 mph - N/A   Scattered Clouds
9:55 PM 50.0 °F - 46.4 °F 87% 29.79 in 6.0 mi SSE 4.6 mph - N/A   Mostly Cloudy
10:35 PM 50.0 °F - 46.4 °F 87% 29.78 in 6.0 mi SSE 5.8 mph - N/A   Overcast
10:55 PM 51.8 °F - 46.4 °F 82% 29.78 in 6.0 mi SSE 6.9 mph - N/A   Overcast
11:15 PM 51.8 °F - 46.4 °F 82% 29.78 in 7.0 mi SSE 4.6 mph - N/A   Overcast
11:35 PM 51.8 °F - 46.4 °F 82% 29.78 in 7.0 mi SE 5.8 mph - N/A   Overcast
11:55 PM 50.0 °F - 46.4 °F 87% 29.78 in 7.0 mi South 6.9 mph - N/A   Scattered Clouds